カタログに戻る

STARLINK-4742

運用中通信VLEO
NORAD 53795·PAYLOAD·🇺🇸 United States

打ち上げ Sep 11, 2022 から Cape Canaveral Space Force Station

Loading…

次のパス (今後24時間)

TLE

最新Source: CelesTrak SupGP

元期: Sep 15, 2026, 01:19 UTC

1 53795C 22111Y   26258.05534722  .00010977  00000+0  35276-3 0  2584
2 53795  53.1574 132.2761 0001147  89.0243 234.2734 15.31718637    15

AllMySatでSTARLINK-4742をリアルタイム追跡

Download on the App Store